Location: Kenockee Observatory
(43.0173°N, 82.7297°W)
Time: 14:56:57
(UTC-04:00)

Daily predictions for brighter satellites

Satellite Brightness Start Highest point End
(mag) Time Altitude Azimuth Time Altitude Azimuth Time Altitude Azimuth
Cosmos 371 Rocket 3.7 21:40:30 10° NNW 21:45:17 67° WSW 21:50:01 10° S
deb Chang Zheng 4 3.6 21:43:07 10° NNE 21:47:27 66° ESE 21:51:45 10° S
ALOS 4.0 21:47:56 10° SSW 21:52:08 33° W 21:56:21 10° NNW
USA 186 4.0 21:51:24 10° SW 21:52:54 15° W 21:54:27 10° NW
Cosmos 1939 Rocket 2.8 21:49:07 10° SSE 21:53:04 82° ENE 21:56:59 10° N
Delta 2 Rocket 4.5 21:52:56 10° SSW 21:55:24 18° SSE 21:57:47 10° ESE
Cosmos 1674 3.0 21:55:32 10° S 21:59:13 49° E 22:02:58 10° NNE
Envisat 3.0 21:54:58 10° SSE 22:00:02 80° ENE 22:05:08 10° N
SPOT 5 2.9 21:56:04 10° SSE 22:00:32 63° ENE 22:05:18 10° N
Meteor 2-2 Rocket 4.4 21:58:35 10° N 22:04:36 86° E 22:10:39 10° S
Cosmos 1833 4.3 22:00:25 10° S 22:06:02 62° ESE 22:11:38 10° NNE
ERS-1 Rocket 3.7 22:02:00 10° S 22:06:54 53° W 22:11:50 10° NNW
Cosmos 2333 Rocket 4.2 22:04:03 10° N 22:07:41 17° NE 22:11:18 10° E
Cosmos 2112 Rocket 4.4 22:02:56 10° N 22:08:02 49° ENE 22:12:50 11° SE
Cosmos 1300 4.1 22:05:06 10° NNE 22:08:14 23° ENE 22:11:00 12° SE
Cosmos 1437 Rocket 2.8 22:04:34 10° NNW 22:08:24 81° W 22:12:14 10° S
Cosmos 1515 Rocket 3.9 22:04:03 10° NNW 22:08:28 67° W 22:12:50 10° S
DELTA 2 R/B (1) 3.8 22:05:44 10° W 22:11:08 54° SSW 22:16:24 11° ESE
USA 245 3.6 22:10:34 13° SE 22:12:18 24° ENE 22:14:19 10° NNE
Cosmos 1437 3.2 22:09:19 10° SSE 22:12:26 42° E 22:15:35 10° NNE
Nimbus 7 Rocket 4.4 22:08:20 10° NNE 22:14:14 87° ESE 22:20:05 10° SSW
Cosmos 1777 Rocket 4.2 22:11:41 10° SSW 22:16:57 81° WNW 22:22:15 10° NNE
PSLV R/B 3.1 22:16:12 10° SSE 22:19:15 86° WSW 22:22:20 10° NNW
Cosmos 2315 Rocket 4.2 22:13:37 10° N 22:19:46 59° E 22:25:34 11° SSE
COSMOS 2428 3.4 22:14:40 10° NNW 22:20:05 43° ENE 22:24:46 13° SE
Cosmos 2266 Rocket 4.0 22:16:10 10° S 22:22:29 88° E 22:28:44 10° N
Sich 1 4.3 22:20:01 14° SE 22:22:55 26° E 22:26:33 10° NNE
AVUM R/B 2.8 22:20:44 10° SSW 22:23:01 67° WNW 22:25:33 10° NNE
Cosmos 1633 Rocket 4.3 22:21:04 14° SE 22:23:48 24° E 22:27:21 10° NE
Cosmos 2151 2.9 22:19:39 10° S 22:23:50 70° E 22:28:02 10° NNE
Cosmos 405 3.2 22:20:28 10° NNW 22:24:05 72° W 22:27:41 10° S
Meteor 2-20 Rocket 4.5 22:18:34 10° S 22:24:44 86° E 22:30:55 10° N
YAOGAN 6 2.6 22:23:27 13° SSE 22:26:36 69° ENE 22:30:12 10° N
NOSS 3-1 (C) 3.9 22:21:39 10° S 22:26:59 38° ESE 22:32:48 10° NE
Cosmos 304 Rocket 3.8 22:23:10 10° NNW 22:28:02 90° E 22:32:12 14° SSE
CZ-4C R/B 4.3 22:29:16 16° ESE 22:31:17 26° ENE 22:34:15 10° N
Cosmos 1328 3.7 22:28:32 10° S 22:32:28 73° E 22:36:26 10° NNE
H-2A R/B 3.2 22:29:35 14° ESE 22:33:28 32° ENE 22:38:14 10° N
Cosmos 1151 Rocket 3.5 22:29:51 10° NNW 22:34:06 60° W 22:38:21 10° S
Cosmos 2219 Rocket 3.4 22:31:39 10° N 22:36:34 30° NE 22:40:42 13° ESE
Cosmos 1805 Rocket 3.7 22:33:35 12° S 22:37:39 58° E 22:42:02 10° NNE
MetOp-A 4.3 22:33:54 10° S 22:39:14 72° WSW 22:44:36 10° NNW
SWAS 4.4 22:35:27 10° NNW 22:39:48 85° ENE 22:42:49 19° SSE
ARGOS 3.2 22:37:03 15° SSE 22:41:30 72° ENE 22:46:53 10° N
Cosmos 2237 4.4 22:36:06 10° NNW 22:41:50 67° ENE 22:46:02 19° SE
Landsat 7 4.4 22:39:24 18° SE 22:42:36 43° ENE 22:47:06 10° N
Cosmos 1680 Rocket 3.7 22:40:04 10° NNW 22:45:17 68° WSW 22:49:36 15° S
SPOT 1/Viking Rocket 3.5 22:41:07 15° SSE 22:45:28 89° WSW 22:50:40 10° NNW
Cosmos 2058 2.8 22:46:01 12° S 22:49:44 83° E 22:53:51 10° N
CZ-4B R/B 3.6 22:47:07 10° NNE 22:52:26 86° WNW 22:57:38 10° SSW
H-2A R/B 4.3 22:50:32 10° SW 22:54:02 22° W 22:57:35 10° NW
Cosmos 1707 Rocket 3.5 22:50:48 10° N 22:55:10 85° E 22:58:04 21° S
Cosmos 2219 3.2 22:50:31 10° SSW 22:56:16 85° ESE 23:02:03 10° NNE
Terra 2.4 22:55:46 22° SE 22:58:28 44° ENE 23:02:59 10° N
SL-14 R/B 3.2 22:56:58 21° S 22:59:31 70° E 23:03:30 10° NNE
Cosmos 1666 Rocket 3.5 22:56:36 18° S 22:59:50 74° E 23:04:16 10° NNE
Cosmos 1703 3.9 22:58:44 27° SE 23:00:11 37° E 23:03:49 10° NNE
Cosmos 1898 Rocket 3.6 22:56:18 16° S 23:00:16 53° ESE 23:05:19 10° NNE
Cosmos 1726 2.1 22:57:04 10° N 23:00:51 77° E 23:02:46 28° SSE
Meteor 1-27 4.2 22:55:22 10° N 23:01:06 89° W 23:05:11 19° S
Meteor 2-11 Rocket 4.4 22:55:16 10° N 23:01:28 87° E 23:06:04 19° S
Cosmos 1745 Rocket 4.3 22:57:28 20° SSE 23:01:32 47° E 23:07:25 10° NNE
Cosmos 1271 Rocket 3.1 22:57:56 10° N 23:01:39 47° ENE 23:03:14 29° SE
Cosmos 2150 Rocket 4.2 22:57:11 14° S 23:01:41 57° ESE 23:07:03 10° NNE
Cosmos 2333 4.3 22:56:19 10° NNW 23:02:03 72° ENE 23:05:40 24° SE
Cosmos 2237 Rocket 3.3 22:59:56 10° N 23:05:08 34° NE 23:08:42 18° ESE
CZ-4 R/B 4.0 23:06:59 10° N 23:11:58 77° WNW 23:16:33 11° SSW
DMSP B5D2-2 4.3 23:07:25 10° NNE 23:12:29 49° E 23:15:08 26° SSE
Cosmos 1470 Rocket 4.1 23:11:47 29° SE 23:13:16 40° E 23:17:19 10° NNE
Cosmos 220 Rocket 4.5 23:12:13 30° SSE 23:13:48 42° ESE 23:18:01 10° NNE
Cosmos 1933 Rocket 4.2 23:13:06 29° SE 23:14:42 40° E 23:18:54 10° NNE
Iridium 2 3.8 23:14:54 35° SSE 23:16:16 57° E 23:20:03 10° NNE
IGS 5A 3.7 23:14:41 31° SE 23:16:25 57° ENE 23:20:32 10° N
Cosmos 2360 Rocket 3.5 23:13:09 10° NW 23:18:09 33° WSW 23:22:22 14° SSW
SeaSat 1 4.1 23:15:33 14° E 23:18:44 25° NE 23:22:42 10° N
NOSS 3-1 (A) 3.3 23:23:44 10° SSW 23:29:37 80° ESE 23:36:11 10° NE
NOSS 0 Rocket 4.0 23:23:54 10° NNW 23:30:04 70° ENE 23:33:19 29° SE
USA 32 4.1 23:25:44 10° N 23:31:00 75° W 23:34:01 26° S
Meteor 2-10 4.2 23:25:30 10° N 23:31:14 86° E 23:34:14 30° SSE
Meteor 1-4 Rocket 2.9 23:29:11 10° NNW 23:32:55 62° W 23:34:10 37° SSW
Cosmos 2242 Rocket 4.0 23:32:34 10° NNW 23:36:58 58° W 23:39:06 29° SSW
Cosmos 1626 2.2 23:40:11 52° SE 23:40:44 59° E 23:44:27 10° NNE
Cosmos 2227 Rocket 2.3 23:42:29 32° S 23:44:53 57° ESE 23:50:26 10° NNE
ATLAS 2AS CENTAUR R/B 3.1 23:48:09 27° S 23:52:10 52° ESE 23:59:52 10° NE
Cosmos 2333 Rocket 2.2 23:47:01 10° NNW 23:52:49 88° ENE 23:55:11 38° SSE
Cosmos 1862 Rocket 3.4 23:49:14 10° N 23:53:36 85° W 23:54:46 48° S
